Photometre #19[NE_1.6] OHP_OBSERVATOIRE AOT

File : 20200928_19.hum

28/09/2020,06:22:01,TEMP=9.4,BA=5.64,STAT.A=Abs.,ExtBa=12.05
28/09/2020,06:25:38,TEMP=9.5,BA=5.64,STAT.A=Abs.,ExtBa=11.90
28/09/2020,06:29:51,TEMP=9.3,BA=5.64,STAT.A=Abs.,ExtBa=11.88
28/09/2020,06:34:53,TEMP=9.2,BA=5.60,STAT.A=Abs.,ExtBa=11.88
28/09/2020,06:40:57,TEMP=9.1,BA=5.64,STAT.A=Abs.,ExtBa=11.90
28/09/2020,06:48:26,TEMP=9.2,BA=5.64,STAT.A=Abs.,ExtBa=11.90
28/09/2020,06:57:56,TEMP=9.3,BA=5.60,STAT.B=Abs.,ExtBa=11.94
28/09/2020,07:02:29,TEMP=9.3,BA=5.64,STAT.A=Abs.,ExtBa=11.92
28/09/2020,07:07:35,TEMP=9.3,BA=5.64,STAT.A=Abs.,ExtBa=11.92
28/09/2020,07:13:22,TEMP=9.4,BA=5.64,STAT.A=Abs.,ExtBa=11.91
28/09/2020,07:19:56,TEMP=9.5,BA=5.64,STAT.A=Abs.,ExtBa=11.91
28/09/2020,07:27:31,TEMP=9.6,BA=5.60,STAT.C=Abs.,ExtBa=11.91
28/09/2020,07:36:21,TEMP=9.6,BA=5.64,STAT.A=Abs.,ExtBa=11.92
28/09/2020,07:46:50,TEMP=9.7,BA=5.64,STAT.A=Abs.,ExtBa=11.92
28/09/2020,07:59:31,TEMP=10.0,BA=5.64,STAT.A=Abs.,ExtBa=11.93
28/09/2020,08:15:12,TEMP=10.2,BA=5.64,STAT.A=Abs.,ExtBa=11.92
28/09/2020,08:28:07,TEMP=10.5,BA=5.64,STAT.F,ExtBa=11.91
28/09/2020,08:43:05,TEMP=10.9,BA=5.64,STAT.D=Abs.,ExtBa=11.90
28/09/2020,08:58:05,TEMP=12.3,BA=5.64,STAT.D=Abs.,ExtBa=11.92
28/09/2020,09:13:05,TEMP=14.0,BA=5.64,STAT.D=Abs.,ExtBa=11.93
28/09/2020,09:28:07,TEMP=14.1,BA=5.64,STAT.F,ExtBa=11.95
28/09/2020,09:44:43,TEMP=14.0,BA=5.60,STAT.D=Abs.,ExtBa=11.94
28/09/2020,09:58:05,TEMP=14.5,BA=5.64,STAT.D=Abs.,ExtBa=11.94
28/09/2020,10:13:06,TEMP=15.0,BA=5.64,STAT.D=Abs.,ExtBa=11.94
28/09/2020,10:28:07,TEMP=15.0,BA=5.64,STAT.F,ExtBa=11.97
28/09/2020,10:43:06,TEMP=16.1,BA=5.64,STAT.D=Abs.,ExtBa=11.96
28/09/2020,10:58:06,TEMP=15.1,BA=5.64,STAT.D=Abs.,ExtBa=11.96
28/09/2020,11:13:06,TEMP=14.7,BA=5.64,STAT.D=Abs.,ExtBa=11.98
28/09/2020,11:28:07,TEMP=14.7,BA=5.64,STAT.F,ExtBa=12.03
28/09/2020,11:43:06,TEMP=15.1,BA=5.64,STAT.D=Abs.,ExtBa=11.99
28/09/2020,11:58:06,TEMP=15.1,BA=5.64,STAT.D=Abs.,ExtBa=12.01
28/09/2020,12:28:06,TEMP=15.3,BA=5.64,STAT.F,ExtBa=12.00
28/09/2020,12:43:05,TEMP=17.1,BA=5.64,STAT.D=Abs.,ExtBa=12.00
28/09/2020,12:58:05,TEMP=18.5,BA=5.64,STAT.D=Abs.,ExtBa=12.00
28/09/2020,13:13:05,TEMP=18.6,BA=5.64,STAT.D=Abs.,ExtBa=12.00
28/09/2020,13:28:07,TEMP=18.3,BA=5.64,STAT.F,ExtBa=11.99
28/09/2020,13:43:05,TEMP=18.6,BA=5.64,STAT.D=Abs.,ExtBa=11.97
28/09/2020,13:58:05,TEMP=18.4,BA=5.64,STAT.D=Abs.,ExtBa=11.99
28/09/2020,14:13:05,TEMP=17.8,BA=5.64,STAT.D=Abs.,ExtBa=11.99
28/09/2020,14:28:07,TEMP=18.1,BA=5.64,STAT.F,ExtBa=11.99
28/09/2020,14:41:00,TEMP=18.0,BA=5.64,STAT.A=Abs.,ExtBa=11.98
28/09/2020,14:56:42,TEMP=17.8,BA=5.64,STAT.A=Abs.,ExtBa=11.99
28/09/2020,15:09:22,TEMP=17.5,BA=5.64,STAT.A=Abs.,ExtBa=11.97
28/09/2020,15:19:51,TEMP=17.3,BA=5.60,STAT.A=Abs.,ExtBa=11.96
28/09/2020,15:28:41,TEMP=17.1,BA=5.60,STAT.C=Abs.,ExtBa=11.95
28/09/2020,15:38:35,TEMP=17.0,BA=5.60,STAT.A=Abs.,ExtBa=11.95
28/09/2020,15:42:50,TEMP=16.6,BA=5.60,STAT.A=Abs.,ExtBa=11.95
28/09/2020,15:48:37,TEMP=16.5,BA=5.60,STAT.A=Abs.,ExtBa=11.95
28/09/2020,15:53:43,TEMP=16.5,BA=5.60,STAT.A=Abs.,ExtBa=11.93
28/09/2020,15:58:16,TEMP=16.4,BA=5.60,STAT.B=Abs.,ExtBa=11.92
28/09/2020,16:07:46,TEMP=16.0,BA=5.60,STAT.A=Abs.,ExtBa=11.96
28/09/2020,16:15:15,TEMP=15.8,BA=5.64,STAT.A=Abs.,ExtBa=11.94
28/09/2020,16:21:19,TEMP=15.6,BA=5.64,STAT.A=Abs.,ExtBa=11.92
28/09/2020,16:26:21,TEMP=15.5,BA=5.64,STAT.A=Abs.,ExtBa=11.91
28/09/2020,16:30:34,TEMP=15.4,BA=5.64,STAT.A=Abs.,ExtBa=11.89
28/09/2020,16:36:32,TEMP=15.1,BA=5.64,STAT.A=Abs.,ExtBa=11.88